This is the latest recevied weather packets stored in our database for station/object HARMALA. If no packets are shown the sender has not sent any weather packets the latest 10 day(s).
| Time | Temp. | Humidity | Pressure | Rain* | Wind** | Luminosity | Snow |
|---|---|---|---|---|---|---|---|
| 1777615619 | 9.44° C | 67% | 1020.3 hPa | 0 mm | - | - | - |
| 1777614418 | 8.89° C | 70% | 1020.3 hPa | 0 mm | - | - | - |
| 1777613218 | 8.33° C | 74% | 1020.4 hPa | 0 mm | - | - | - |
| 1777612019 | 7.78° C | 77% | 1020.4 hPa | 0 mm | - | - | - |
| 1777610818 | 7.22° C | 78% | 1020.5 hPa | 0 mm | - | - | - |
| 1777609619 | 6.67° C | 80% | 1020.6 hPa | 0 mm | - | - | - |
| 1777608419 | 6.11° C | 82% | 1020.6 hPa | 0 mm | - | - | - |
| 1777607218 | 5.56° C | 90% | 1020.7 hPa | 0 mm | - | - | - |
| 1777606019 | 3.33° C | 94% | 1021 hPa | 0 mm | - | - | - |
| 1777604818 | 2.78° C | 94% | 1021 hPa | 0 mm | - | - | - |
| 1777603620 | 2.78° C | 93% | 1021 hPa | 0 mm | - | - | - |
| 1777602419 | 3.33° C | 92% | 1021.2 hPa | 0 mm | - | - | - |
| 1777601218 | 3.33° C | 93% | 1021.3 hPa | 0 mm | - | - | - |
| 1777600018 | 3.33° C | 91% | 1021.3 hPa | 0 mm | - | - | - |
| 1777598818 | 3.33° C | 91% | 1021.4 hPa | 0 mm | - | - | - |
| 1777597618 | 3.89° C | 90% | 1021.3 hPa | 0 mm | - | - | - |
| 1777596418 | 3.89° C | 89% | 1021.2 hPa | 0 mm | - | - | - |
| 1777595218 | 4.44° C | 88% | 1021.3 hPa | 0 mm | - | - | - |
| 1777594018 | 5° C | 86% | 1021.4 hPa | 0 mm | - | - | - |
| 1777592818 | 5.56° C | 85% | 1021.3 hPa | 0 mm | - | - | - |
| 1777591618 | 6.11° C | 83% | 1021.3 hPa | 0 mm | - | - | - |
| 1777590417 | 6.67° C | 81% | 1021.3 hPa | 0 mm | - | - | - |
| 1777589218 | 7.78° C | 77% | 1021.3 hPa | 0 mm | - | - | - |
| 1777588017 | 7.78° C | 77% | 1021.4 hPa | 0 mm | - | - | - |
| 1777586817 | 8.33° C | 75% | 1021.4 hPa | 0 mm | - | - | - |
* Rain latest hour (hover to see other rain measurements)
** Current wind speed in m/s (hover to see current wind gust speed)